Terminal Aerodrome Forecast
Issued by NWS Shreveport, LA

Home | Current Version | Previous Version | Text Only | Print | Product List | Glossary On
Versions: 1 2 3 4 5 6 7 8 9 10 11 12
000
FTUS44 KSHV 031134
TAFTYR
TAF
KTYR 031134Z 0312/0412 17004KT P6SM BKN250
     FM031500 20005KT P6SM BKN250
     FM031800 16006KT P6SM BKN250
     FM040000 14005KT P6SM SCT250=

USA.gov is the U.S. government's official web portal to all federal, state and local government web resources and services.